User: anonymous   Login
Location: Theydon Bois
(51.6750°N, 0.1050°E)
Time: 02:24:40
(UTC+00:00)
Language:

Geosat - Orbit

View from above orbital plane
View from above orbital plane
View from above satellite
View from above satellite

Ground track
Ground track

The orbit data is extracted from the following two-line orbital elements,

1 15595U 85021A   17343.94630007 -.00000063 +00000-0 +23968-4 0  9990
2 15595 108.0361 100.4154 0001347 261.7846 199.5359 14.38052417715380
Epoch (UTC): 09 December 2017 22:42:40
Eccentricity: 0.0001347
inclination: 108.0361°
perigee height: 764 km
apogee height: 766 km
right ascension of ascending node: 100.4154°
argument of perigee: 261.7846°
revolutions per day: 14.38052417
mean anomaly at epoch: 199.5359°
orbit number at epoch: 71538

The dashed part of the orbit path shows where the satellite is in the earth's shadow,  

DLR